TimeEST,TemperatureF,Dew PointF,Humidity,Sea Level PressureIn,VisibilityMPH,Wind Direction,Wind SpeedMPH,Gust SpeedMPH,PrecipitationIn,Events,Conditions,WindDirDegrees,DateUTC
12:53 AM,46.0,26.1,46,30.39,10.0,NNE,4.6,-,N/A,,Clear,20,2012-03-10 05:53:00
1:53 AM,45.0,26.1,48,30.39,10.0,NNE,5.8,-,N/A,,Clear,30,2012-03-10 06:53:00
2:53 AM,42.1,26.1,53,30.39,10.0,NNE,6.9,-,N/A,,Clear,20,2012-03-10 07:53:00
3:53 AM,41.0,26.1,55,30.39,10.0,North,5.8,-,N/A,,Clear,10,2012-03-10 08:53:00
4:53 AM,41.0,27.0,57,30.40,10.0,North,5.8,-,N/A,,Clear,10,2012-03-10 09:53:00
5:53 AM,41.0,26.1,55,30.41,10.0,NNE,5.8,-,N/A,,Clear,20,2012-03-10 10:53:00
6:53 AM,41.0,26.1,55,30.43,10.0,NNE,10.4,-,N/A,,Clear,30,2012-03-10 11:53:00
7:53 AM,42.1,27.0,55,30.43,10.0,North,10.4,-,N/A,,Clear,10,2012-03-10 12:53:00
8:53 AM,46.0,26.1,46,30.46,10.0,NNE,10.4,-,N/A,,Clear,30,2012-03-10 13:53:00
9:53 AM,48.9,27.0,43,30.46,10.0,NE,8.1,-,N/A,,Clear,40,2012-03-10 14:53:00
10:53 AM,51.1,28.9,43,30.47,10.0,North,6.9,-,N/A,,Clear,360,2012-03-10 15:53:00
11:53 AM,54.0,28.9,38,30.46,10.0,Calm,Calm,-,N/A,,Clear,0,2012-03-10 16:53:00
12:53 PM,57.0,30.0,36,30.44,10.0,West,4.6,-,N/A,,Clear,280,2012-03-10 17:53:00
1:53 PM,61.0,30.9,32,30.40,10.0,North,5.8,-,N/A,,Clear,350,2012-03-10 18:53:00
2:53 PM,63.0,30.0,29,30.37,10.0,Variable,3.5,-,N/A,,Clear,0,2012-03-10 19:53:00
3:53 PM,64.9,30.9,28,30.35,10.0,Calm,Calm,-,N/A,,Clear,0,2012-03-10 20:53:00
4:53 PM,64.9,30.0,27,30.34,10.0,Calm,Calm,-,N/A,,Clear,0,2012-03-10 21:53:00
5:53 PM,64.0,32.0,30,30.33,10.0,North,5.8,-,N/A,,Clear,350,2012-03-10 22:53:00
6:53 PM,61.0,30.9,32,30.33,10.0,NE,4.6,-,N/A,,Partly Cloudy,40,2012-03-10 23:53:00
7:53 PM,55.9,35.1,45,30.36,10.0,Calm,Calm,-,N/A,,Partly Cloudy,0,2012-03-11 00:53:00
8:53 PM,52.0,37.0,57,30.38,10.0,Calm,Calm,-,N/A,,Clear,0,2012-03-11 01:53:00
9:53 PM,48.9,41.0,74,30.40,10.0,Calm,Calm,-,N/A,,Clear,0,2012-03-11 02:53:00
10:53 PM,45.0,37.9,76,30.41,10.0,Calm,Calm,-,N/A,,Clear,0,2012-03-11 03:53:00
11:53 PM,44.1,37.9,79,30.40,10.0,Calm,Calm,-,N/A,,Clear,0,2012-03-11 04:53:00